www.pogodaiklimat.ru

Погода и климат >> Архив погоды >> Индонезия >> Цитеко


ПОГОДА в Цитеко

  • Прогноз погоды в Цитеко
  • Монитор погоды в Цитеко

АРХИВ ПОГОДЫ в Цитеко

Время (UTC), дата Ветер
(напр.,м/с)
 
Видим.   Явления Облачность Т
(С)
Тd
(С)
f
(%)
Тe
(С)
Тes
(С)
Комфортность P
(гПа)
Po
(гПа)
Тmin
(С)
Tmax
(С)
R
(мм)
R24
(мм)
S
(см)
06 19.06 З 2 12 км 8/5 600 м
[Cu med, cong Ac trans Ci fib]
+26.6 +18.4 61 +31 +37 душно 1009.0 903.7
09 19.06 С 2 10 км 8/8 600 м
[Sc Ci fib]
+26.2 +16.5 55 +30 +30 душно 1008.1 902.8
12 19.06 штиль 0 7000 м 9/8 600 м
[Sc Ci fib]
+21.8 +18.4 81 +27 +27 душно 1009.2 903.8 +27.0
15 19.06 штиль 0 6000 м 9/8 600 м
[Sc As trans Ci fib]
+20.6 +17.6 83 +24 +24 комфорт 1010.8 905.2
18 19.06 штиль 0 6000 м 8/5 600 м
[Sc As trans Ci fib]
+19.0 +15.9 82 +20 +20 1010.5 905.0
21 19.06 штиль 0 6000 м 6/3 600 м
[Sc As trans Ci fib]
+18.4 +15.2 82 +19 +19 1009.6 904.2
00 20.06 ЮВ 1 8000 м 8/3 600 м
[Sc Ac As Ci fib]
+18.0 +14.1 78 +20 +20 1010.5 905.0 +17.8
03 20.06 З 2 7000 м мгла 8/3 600 м
[Sc Ac As Ci fib]
+24.4 +17.5 65 +28 +35 душно 1010.7 905.1
06 20.06 З 1 7000 м мгла 8/4 600 м
[Cu med, cong As trans Ci fib]
+26.6 +18.0 59 +31 +39 душно 1009.0 903.6
09 20.06 СВ 3 11 км 9/5 600 м
[Cu med, cong As trans Ci fib]
+26.8 +18.6 61 +32 +33 очень
душно
1007.8 902.5
12 20.06 штиль 0 8000 м 10/8 600 м
[Cu med, cong As trans]
+23.1 +19.0 78 +29 +29 очень
душно
1009.0 903.6 +27.3
15 20.06 штиль 0 6000 м 10/9 600 м
[Sc As trans]
+21.2 +17.9 81 +25 +25 комфорт 1009.8 904.3
18 20.06 штиль 0 6000 м 8/6 600 м
[Sc Ci fib]
+19.0 +16.2 84 +20 +20 1009.2 903.8
21 20.06 штиль 0 6000 м 8/6 600 м
[Sc Ci fib]
+18.4 +15.6 84 +19 +19 1008.9 903.5
00 21.06 ЮВ 1 6000 м мгла 6/4 600 м
[Sc As trans Ci fib]
+17.6 +12.8 73 +19 +20 1009.6 904.2 +17.6
03 21.06 СЗ 2 6000 м мгла 6/4 600 м
[Cu med, cong As trans Ci fib]
+23.6 +18.6 74 +28 +35 душно 1009.6 904.2
06 21.06 З 1 6000 м мгла 9/6 600 м
[Cu med, cong As trans Ci fib]
+25.0 +19.2 70 +30 +34 душно 1008.1 902.8
09 21.06 СЗ 3 6000 м мгла 10/8 600 м
[Cu med, cong As trans Ci sp]
+24.7 +19.0 71 +30 +30 очень
душно
1007.4 902.2
12 21.06 штиль 0 5000 м мгла 10/8 600 м
[Cu med, cong As trans Ci sp]
+22.0 +19.4 85 +27 +27 душно 1008.6 903.3 +26.0
15 21.06 штиль 0 5000 м мгла 10/8 600 м
[Sc As trans]
+19.6 +16.5 82 +22 +22 комфорт 1009.4 904.0
18 21.06 штиль 0 5000 м мгла 10/8 600 м
[Sc As trans]
+18.4 +14.9 80 +19 +19 1008.8 903.5
21 21.06 штиль 0 6000 м 10/8 600 м
[Sc As trans]
+17.6 +13.0 74 +18 +18 1007.9 902.6
00 22.06 штиль 0 7000 м 4/0
[Ac trans Ci fib]
+18.0 +13.1 73 +18 +19 1008.8 903.5 +17.6
03 22.06 СЗ 3 8000 м мгла 3/1 600 м
[Cu hum As trans Ci fib]
+23.8 +17.5 68 +28 +37 душно 1009.4 904.0
06 22.06 СЗ 3 8000 м мгла 9/8 600 м
[Cu med, cong As trans Ci fib]
+25.8 +18.1 62 +30 +32 душно 1007.9 902.7
09 22.06 З 1 7000 м мгла 10/6 600 м
[Cu med, cong As trans Ci fib]
+24.6 +18.6 69 +29 +30 душно 1007.5 902.3
12 22.06 штиль 0 5000 м мгла 10/5 600 м
[Cu med, cong As trans Ci fib]
+22.0 +19.4 85 +27 +27 душно 1008.8 903.5 +26.4
15 22.06 штиль 0 5000 м мгла 10/6 600 м
[Cu med, cong As trans Ci sp]
+20.0 +16.1 78 +22 +22 комфорт 1009.9 904.5
18 22.06 штиль 0 6000 м 9/6 600 м
[Cu med, cong As trans Ci sp]
+18.8 +17.3 91 +20 +20 1008.9 903.6
21 22.06 штиль 0 6000 м 9/5 600 м
[Sc As trans Ci sp]
+17.4 +13.5 78 +17 +17 1008.4 903.1
00 23.06 штиль 0 10 км 6/3 600 м
[Sc diur, vesp As trans Ci fib]
+18.0 +13.3 74 +18 +19 1009.8 904.4 +17.4
03 23.06 СЗ 2 8000 м мгла 8/5 600 м
[Sc As trans Ci fib]
+23.2 +18.6 75 +29 +34 душно 1010.3 904.8
06 23.06 СЗ 2 7000 м мгла 9/8 600 м
[Cu med, cong As trans Ci fib]
+24.8 +19.6 73 +30 +33 душно 1008.8 903.5
09 23.06 штиль 0 6000 м мгла 9/8 600 м
[Cu hum Ci fib]
+24.8 +18.5 68 +29 +30 душно 1008.0 902.8
12 23.06 штиль 0 5000 м осадки на расстоянии 10/9 600 м
[Cu med, cong Ci fib]
+22.4 +19.6 84 +28 +28 душно 1009.7 904.3 +25.2
15 23.06 штиль 0 6000 м 8/6 600 м
[Sc As trans Ci fib]
+19.6 +17.5 88 +22 +22 комфорт 1010.6 905.1
18 23.06 штиль 0 6000 м 6/3 600 м
[Sc As trans Ci fib]
+18.5 +16.5 88 +19 +19 1010.2 904.7
21 23.06 штиль 0 6000 м 6/1 600 м
[Sc As trans Ci fib]
+17.6 +16.4 93 +18 +18 1009.3 904.0
00 24.06 С 1 8000 м 6/3 600 м
[Sc As trans Ci fib]
+17.4 +14.5 83 +19 +20 1010.5 905.0 +17.4
03 24.06 штиль 0 6000 м мгла 8/5 600 м
[Cu med, cong As trans Ci fib]
+23.0 +18.2 74 +29 +35 очень
душно
1011.4 905.8
06 24.06 СЗ 2 6000 м мгла 10/8 600 м
[Cu med, cong As trans]
+24.4 +19.4 74 +30 +31 очень
душно
1010.0 904.5
09 24.06 З 1 8000 м осадки на расстоянии 10/9 600 м
[Cu med, cong As trans]
+24.4 +17.8 67 +29 +29 душно 1009.3 903.9
12 24.06 штиль 0 7000 м осадки на расстоянии 10/9 600 м
[Cu med, cong As trans]
+21.8 +18.1 80 +27 +27 душно 1010.6 905.0 +25.3
15 24.06 штиль 0 6000 м 9/9 600 м
[Sc As trans]
+19.2 +16.1 82 +21 +21 комфорт 1012.0 906.3
18 24.06 штиль 0 6000 м 9/8 600 м
[Sc Ci fib]
+17.8 +15.3 85 +18 +18 1011.0 905.4
21 24.06 штиль 0 6000 м 8/6 600 м
[Sc Ci fib]
+17.6 +15.1 85 +18 +18 1010.5 904.9
00 25.06 штиль 0 8000 м 6/3 600 м
[Sc diur, vesp As trans Ci fib]
+17.8 +14.3 80 +18 +19 1012.1 906.4 +17.2
03 25.06 СЗ 2 10 км 4/1 600 м
[Sc diur, vesp As trans Ci fib]
+23.6 +18.2 72 +28 +37 душно 1012.7 906.9
06 25.06 СЗ 2 8000 м мгла 8/5 600 м
[Cu med, cong As trans Ci fib]
+25.8 +18.4 64 +31 +36 очень
душно
1010.4 904.9
09 25.06 ЮЗ 1 8000 м мгла 9/6 600 м
[Cu med, cong As trans Ci sp]
+26.6 +17.0 56 +31 +32 душно 1008.9 903.6
12 25.06 штиль 0 7000 м 9/6 600 м
[Cu med, cong As trans Ci sp]
+21.4 +16.8 75 +25 +25 комфорт 1010.2 904.7 +27.2
15 25.06 штиль 0 6000 м 9/6 600 м
[Cu med, cong As trans Ci fib]
+19.2 +15.3 78 +21 +21 комфорт 1011.3 905.7
18 25.06 штиль 0 6000 м 9/6 600 м
[Cu med, cong As trans Ci fib]
+18.4 +16.2 87 +19 +19 1010.6 905.1
21 25.06 штиль 0 6000 м 10/8 600 м
[Sc As trans]
+18.8 +14.3 75 +20 +20 1010.0 904.5
00 26.06 СВ 1 8000 м 8/4 600 м
[Sc As trans Ci fib]
+19.6 +14.5 72 +22 +23 комфорт 1011.0 905.4 +17.4
03 26.06 ЮЗ 1 10 км 6/4 600 м
[Cu med, cong As trans Ci fib]
+25.4 +17.0 60 +29 +37 душно 1011.8 906.1

 

Местоположение метеостанции Цитеко (Индонезия): широта -6.70 долгота 106.93 высота над уровнем моря 300 м.

В архиве по умолчанию представлена погода в Цитеко за последнюю неделю. Архивные данные за месяц целиком и за предыдущие месяцы, начиная с января 2011 года, Вы можете получить, выбрав интересующий диапазон дат из раскрывающегося списка и нажав кнопку "Ввод!".


*Определитесь, кто Вы:
робот инопланетянин человек

Внимание! Время в таблицах - всемирное. Для получения местного времени необходимо прибавить поправку, которая равна 7 ч.

Смотрите также архив погоды в соседних городах и на ближайших метеорологических станциях:

Погода в Джакарте (Индонезия) (59 км)
Погода в Чуруге (Индонезия) (61 км)
Погода в Джакарта порту (Индонезия) (67 км)
Погода в Аэропорту Сукарно-Хатта (Индонезия) (72 км)
Погода в Бандунге (Индонезия) (75 км)
Погода в Серанге (Индонезия) (109 км)
Погода в Сиребоне (Индонезия) (147 км)
Погода в Тегале (Индонезия) (246 км)
Погода в Чилачапе (Индонезия) (257 км)
Погода в Танджунгкаранге (Индонезия) (263 км)

Пояснения к столбцам:

Ветер - указаны скорость ветра в м/с - средняя за 10 мин, порывы в срок и между сроками (в фигурных скобках) и направление, откуда дует ветер: С - северный, СВ - северо-восточный, В - восточный, ЮВ - юго-восточный, Ю - южный, ЮЗ - юго-западный, З - западный, СЗ - северо-западный.
Видимость - горизонтальная дальность видимости в метрах или километрах. При видимости от 1 до 10 км при отсутствии осадков обычно наблюдается дымка, при ухудшении видимости до 1 км и менее - туман. В сухую погоду видимость может ухудшаться дымом, пылью или мглою.
Явления - указаны атмосферные явления, наблюдавшиеся в срок или в последний час перед сроком; фигурными скобками обозначены явления, наблюдавшиеся между сроками (за 1-3 часа до срока); квадратными скобками обозначены град или гололедные отложения с указанием их диаметра в мм.
Облачность - указаны через наклонную черту общая и нижняя облачность в баллах и высота нижней границы облаков в метрах; квадратными скобками обозначены формы облаков: Ci - перистые, Cs - перисто-слоистые, Cc - перисто-кучевые, Ac - высококучевые, As - высокослоистые, Sc - слоисто-кучевые, Ns - слоисто-дождевые, Cu - кучевые, Cb - кучево-дождевые. Подробнее классификацию облаков см. в Атласе облаков (PDF).
T - Температура воздуха - температура, измеренная на высоте 2 м над землей.
Td - Температура точки росы - температура, при понижении до которой содержащийся в воздухе водяной пар достигнет насыщения.
f - Относительная влажность воздуха - влажноcть воздуха, измеренная на высоте 2 м над землей.
Te - Эффективная температура - температура, которую ощущает одетый по сезону человек в тени. Характеристика душности погоды. При расчете учитывается влияние влажности воздуха и скорости ветра на теплоощущения человека.
Tes - Эффективная температура на солнце - температура, которую ощущает человек, с поправкой на солнечный нагрев. Характеристика знойности погоды. Зависит от высоты солнца над горизонтом, облачности и скорости ветра. Ночью, в пасмурную погоду, а также при ветре 12 м/с и более поправка равна нулю.
P - Атмосферное давление - приведенное к уровню моря атмосферное давление.
Po - Атмосферное давление - измеренное на уровне метеостанции атмосферное давление.
Tmin - Минимальная температура - минимум температуры воздуха на высоте 2 м над землей.
Tmax - Максимальная температура - максимум температуры воздуха на высоте 2 м над землей.
R - Количество осадков - Количество выпавших осадков за период времени, мм. При наведении курсора мыши на число - период времени, за который выпало указанное количество осадков.
R24 - Количество осадков - Количество выпавших осадков за 24 часа, мм.
S - Снежный покров - Высота снежного покрова, см. При наведении курсора мыши на число - состояние снежного покрова и степень покрытия местности в баллах.